Regional Weather Roundup
Issued by NWS San Angelo, TX

Home | Current Version | Previous Version | Text Only | Print | Product List | Glossary On
Versions: 1 2 3 4 5 6 7 8 9 10 11 12 13 14 15 16 17 18 19 20 21 22 23 24 25 26 27 28 29 30 31 32 33 34 35 36 37 38 39 40 41 42 43 44 45 46 47 48 49 50
000
ASUS44 KSJT 070602
RWRSJT
WEST CENTRAL TEXAS REGIONAL WEATHER ROUNDUP
NATIONAL WEATHER SERVICE SAN ANGELO TX
100 AM CDT THU MAY 07 2015

NOTE: "FAIR" INDICATES FEW OR NO CLOUDS BELOW 12,000 FEET WITH NO
SIGNIFICANT WEATHER AND/OR OBSTRUCTIONS TO VISIBILITY.

TXZ049-054-064>066-071>073-076>078-098-099-113-114-127-128-139-140-
154-155-168>170-070700
...LOCATIONS ACROSS WEST CENTRAL TEXAS...

CITY           SKY/WX    TMP DP  RH WIND       PRES   REMARKS
SAN ANGELO     CLEAR     73  65  75 S14G22    29.82R
ABILENE        PTCLDY    73  64  73 S13       29.84S
DYESS AFB      PTCLDY    73  64  74 S16G23    29.83S
JUNCTION       CLOUDY    73  65  75 SE10      29.88F
SWEETWATER     NOT AVBL
BROWNWOOD      NOT AVBL
COLEMAN        NOT AVBL
SONORA         NOT AVBL
OZONA          NOT AVBL
BRADY          NOT AVBL
$$

TEXAS PANHANDLE/OKLAHOMA PANHANDLE

CITY           SKY/WX    TMP DP  RH WIND       PRES   REMARKS
AMARILLO       CLEAR     57  49  74 S6        29.83R
BORGER         PTCLDY    68  46  45 S12G18    29.78S
CANADIAN       NOT AVBL
DALHART        CLEAR     56  45  66 SW13      29.82R
DUMAS          NOT AVBL
GUYMON         NOT AVBL
HEREFORD       NOT AVBL
PAMPA          NOT AVBL
PERRYTON       NOT AVBL
$$

SOUTHERN PANHANDLE/SOUTH PLAINS/ROLLING PLAINS

CITY           SKY/WX    TMP DP  RH WIND       PRES   REMARKS
LUBBOCK        CLEAR     68  61  78 S16       29.82S
SNYDER         NOT AVBL
CHILDRESS      PTCLDY    63  59  87 SE15      29.82S
SEMINOLE       NOT AVBL
$$

PERMIAN BASIN

CITY           SKY/WX    TMP DP  RH WIND       PRES   REMARKS
MIDLAND        CLEAR     70  63  78 S15       29.82F
ODESSA         CLEAR     69  62  78 S16       29.83F
WINK           CLEAR     71  61  70 SE16G28   29.78F
$$

FAR WEST/SOUTHWEST MOUNTAINS/TRANS PECOS

CITY           SKY/WX    TMP DP  RH WIND       PRES   REMARKS
ALPINE         NOT AVBL
DRYDEN           N/A     71  66  84 E15       29.80F
EL PASO        MOCLDY    76  19  11 W13       29.84R
FORT STOCKTON  CLEAR     68  62  81 SE24G33   29.79F
GUADALUPE PASS NOT AVBL
MARFA          PTCLDY    55  46  71 NW3       29.92R
PECOS          NOT AVBL
$$

DALLAS/FORT WORTH METROPLEX

CITY           SKY/WX    TMP DP  RH WIND       PRES   REMARKS
DFW AIRPORT    CLOUDY    73  69  87 SE17G25   29.87F
FTW MEACHAM    CLOUDY    74  69  85 SE16G28   29.87F
DAL-EXECUTIVE  CLOUDY    73  69  87 SE16G24   29.89F
GRAND PRAIRIE  CLOUDY    74  69  86 SE13G22   29.91S
ADDISON        NOT AVBL
MESQUITE       CLOUDY    73  69  90 SE14      29.91F
LANCASTER      CLOUDY    72  67  84 SE8       29.92F
$$

NORTH CENTRAL TEXAS

CITY           SKY/WX    TMP DP  RH WIND       PRES   REMARKS
SHRMAN/DENISON CLOUDY    74  71  90 SE16      29.90F
GAINESVILLE    NOT AVBL
BRIDGEPORT     CLOUDY    74  70  89 SE12G20   29.88S
DENTON         CLOUDY    74  69  85 SE17      29.89R
WAXAHACHIE     CLOUDY    72  71  96 SE9       29.92S
GRANBURY         N/A     75  69  84 SE10G20   29.87R
$$

WESTERN NORTH TEXAS

CITY           SKY/WX    TMP DP  RH WIND       PRES   REMARKS
WICHITA FALLS  CLOUDY    63  59  87 E7        29.90R THUNDER FOG
VERNON         NOT AVBL
BRECKENRIDGE   PTCLDY    76  65  68 S9G21     29.84S
COMANCHE       PTCLDY    72  67  83 S13G23    29.88R
$$

CENTRAL AND SOUTH CENTRAL TEXAS

CITY           SKY/WX    TMP DP  RH WIND       PRES   REMARKS
AUSTIN/BERGSTM MOCLDY    72  70  93 SE9       29.89S
WACO           MOCLDY    73  68  84 S20       29.90R
HILLSBORO      NOT AVBL
TEMPLE         MOCLDY    72  64  78 SE13      29.90S
KILLEEN-GRAY   PTCLDY    71  68  90 SE13      29.89S
FORT HOOD      CLOUDY    71  68  89 SE10      29.89S
GEORGETOWN     CLOUDY    72  70  94 S7        29.90S
LAGO VISTA     CLOUDY    72  68  87 SE9G16    29.92S
SAN MARCOS     CLOUDY    72  68  88 S14       29.90S
NEW BRAUNFELS  PTCLDY    73  69  87 S14G22    29.88S
RANDOLPH AFB   CLOUDY    73  70  91 SE15      29.89S
SAN ANTONIO    CLOUDY    74  69  85 SE14      29.89S
STINSON        CLOUDY    74  70  87 SE13      29.88R
PLEASANTON     NOT AVBL
LA GRANGE      NOT AVBL
GIDDINGS       PTCLDY    73  69  88 SE7       29.94F
$$

EAST TEXAS

CITY           SKY/WX    TMP DP  RH WIND       PRES   REMARKS
PARIS          CLOUDY    70  66  88 SE9       29.94F
CLARKSVILLE    NOT AVBL
TYLER          CLOUDY    73  68  84 SE9       29.96R
LONGVIEW       PTCLDY    71  66  84 S8        29.97R
PALESTINE      NOT AVBL
NACOGDOCHES      N/A     70  66  88 SE6       29.97S
$$

TEXAS HILL COUNTRY AND EDWARDS PLATEAU

CITY           SKY/WX    TMP DP  RH WIND       PRES   REMARKS
LLANO          NOT AVBL
HORSESHOE BAY  CLOUDY    71  67  87 S6        29.91R
KERRVILLE      NOT AVBL
FREDERICKSBRG  NOT AVBL
ROCKSPRINGS    NOT AVBL
HONDO          CLOUDY    73  68  84 SE15      29.90R
UVALDE         NOT AVBL
DEL RIO        CLOUDY    75  69  81 SE12      29.81S
$$

SOUTHEAST TEXAS

CITY           SKY/WX    TMP DP  RH WIND       PRES   REMARKS
COLLEGE STN    CLOUDY    73  70  90 SE8       29.93R
CALDWELL       NOT AVBL
CROCKETT       NOT AVBL
BRENHAM        NOT AVBL
HUNTSVILLE     CLOUDY    73  69  87 CALM      29.95S
CONROE         CLOUDY    72  69  90 SE8       29.95F
HOUSTON BUSH   MOCLDY    74  71  91 SE9       29.94F
HOUSTON HOBBY  MOCLDY    76  71  85 SE8       29.94F
PERLAND        CLOUDY    77  72  84 SE13      29.95F
WHARTON        NOT AVBL
$$

THE UPPER TEXAS COAST

CITY           SKY/WX    TMP DP  RH WIND       PRES   REMARKS
ORANGE         PTCLDY    73  69  86 SE5       29.99S
PORT ARTHUR    PTCLDY    75  70  84 SE10G21   29.96S
GALVESTON      CLOUDY    76  74  93 SE15G23   29.96S
ANGLETON       CLOUDY    74  73  97 SE12      29.94S
BAY CITY       NOT AVBL
$$

TEXAS COASTAL BEND, RIO GRANDE PLAINS DEEP SOUTH TEXAS

CITY           SKY/WX    TMP DP  RH WIND       PRES   REMARKS
VICTORIA       CLOUDY    75  74  96 MISG      29.91F
BEEVILLE       MOCLDY    74  74 100 SE10      29.87F
ROCKPORT       CLOUDY    78  73  84 SE18G24   29.88F
PORT ARANSAS   NOT AVBL
PORT LAVACA    NOT AVBL
CORPUS CHRISTI CLOUDY    77  73  87 SE13      29.87F
KINGSVILLE NAS CLOUDY    78  76  93 SE9       29.86F
COTULLA        CLOUDY    75  68  78 SE13      29.85S
LAREDO         PTCLDY    75  71  87 SE13      29.84S
BROWNSVILLE    CLOUDY    79  75  87 SE9       29.87F
PORT ISABEL    CLOUDY    79  74  84 SE9       29.86S
HEBBRONVILLE   NOT AVBL
MCALLEN        CLOUDY    78  73  84 SE10      29.85F
WESLACO        NOT AVBL
FALFURRIAS     PTCLDY    74  72  92 SE8       29.85F
EDINBURG       CLEAR     76  72  87 SE6       29.85F
$$



USA.gov is the U.S. government's official web portal to all federal, state and local government web resources and services.